Content
SEND FEEDBACK

Daily
Averages
Monthly
Summary
United States of America

CARSON CITY, NEVADA


Home > North America > United States > Nevada
Elevation: 4742 feet     Latitude: 39 09N     Longitude: 119 46W

WEATHER
 
SELECT A DAY
Number of Records: 100,025;   Date Range: 7/14/10 - 11/20/14
 
SHARE

PRINT THIS DATA

[ ← Previous Day ]
WEATHER ALMANAC - MAY 3, 2013
[ Next Day → ]
[ °C ]   °F
Weather ElementAverageHighLow
Temperature60.9 °F78.8 °F (2:55 pm)37.4 °F (5:55 am)
Dewpoint13.6 °F23 °F (7:55 am)5 °F (7:15 pm)
Humidity19 %45 % (5:55 am)7 % (6:15 pm)
Barometer30.13 in30.29 in (12:35 am)30.02 in (6:55 pm)
Wind Speed6.2 mph17.3 mph (5:55 pm)
Wind Gust25.3 mph (5:15 pm)
Weather ElementAverage
Visibility10 mi
Wind DirectionSSE (163.6 °)

Weather ElementTotal
Precipitation---
Heating Degree Days6.9 (Base 65)
Growing Degree Days8.1 (Base 50)
Averaged from 66 records on May 3, 2013
WEATHER CONDITIONS BREAKOUT
WIND DIRECTION BREAKOUT
WEATHER BY HOUR - MAY 3, 2013
[ °C ]   °F
Local TimeTemperatureDewpointHumidityBarometerVisibilityWind DirectionWind SpeedGust SpeedPrecipitationEventsConditions
12:35 AM46.4 °F10.4 °F23 %30.29 in10.0 miCalmClear
12:55 AM44.6 °F6.8 °F21 %30.29 in10.0 miNNW (340°)5.8 mphClear
1:15 AM46.4 °F10.4 °F23 %30.28 in10.0 miCalmClear
1:35 AM44.6 °F10.4 °F25 %30.28 in10.0 miCalmClear
1:55 AM44.6 °F8.6 °F23 %30.27 in10.0 miCalmClear
2:15 AM44.6 °F10.4 °F25 %30.27 in10.0 miCalmClear
2:35 AM41.0 °F8.6 °F26 %30.26 in10.0 miCalmClear
2:55 AM41.0 °F14.0 °F33 %30.26 in10.0 miCalmClear
3:15 AM41.0 °F14.0 °F33 %30.26 in10.0 miCalmClear
3:35 AM41.0 °F14.0 °F33 %30.25 in10.0 miCalmClear
3:55 AM39.2 °F10.4 °F31 %30.24 in10.0 miCalmClear
4:15 AM39.2 °F15.8 °F39 %30.24 in10.0 miCalmClear
4:35 AM39.2 °F14.0 °F36 %30.24 in10.0 miCalmClear
4:55 AM39.2 °F17.6 °F42 %30.24 in10.0 miCalmClear
5:15 AM39.2 °F17.6 °F42 %30.23 in10.0 miCalmClear
5:35 AM39.2 °F15.8 °F39 %30.23 in10.0 miCalmClear
5:55 AM37.4 °F17.6 °F45 %30.23 in10.0 miCalmClear
6:15 AM39.2 °F15.8 °F39 %30.23 in10.0 miNW (310°)3.5 mphClear
6:35 AM39.2 °F19.4 °F45 %30.24 in10.0 miCalmClear
7:15 AM42.8 °F19.4 °F39 %30.23 in10.0 miCalmClear
7:55 AM50.0 °F23.0 °F35 %30.22 in10.0 miCalmClear
8:15 AM51.8 °F23.0 °F33 %30.21 in10.0 miCalmClear
8:35 AM53.6 °F21.2 °F28 %30.21 in9.0 miCalmClear
9:15 AM57.2 °F21.2 °F25 %30.20 in10.0 miCalmClear
9:35 AM60.8 °F23.0 °F23 %30.19 in10.0 miCalmClear
9:55 AM62.6 °F21.2 °F20 %30.18 in10.0 miCalmClear
10:35 AM68.0 °F21.2 °F17 %30.17 in10.0 miNNW (330°)6.9 mphClear
10:55 AM71.6 °F21.2 °F15 %30.17 in10.0 miSSE (160°)5.8 mph16.1 mphClear
11:15 AM71.6 °F21.2 °F15 %30.16 in10.0 miEast (80°)6.9 mphClear
11:35 AM73.4 °F14.0 °F10 %30.15 in10.0 miNorth (350°)10.4 mphClear
11:55 AM73.4 °F15.8 °F11 %30.14 in10.0 miNNW (330°)11.5 mph17.3 mphClear
12:15 PM73.4 °F17.6 °F12 %30.13 in10.0 miNW (310°)4.6 mphClear
12:35 PM75.2 °F17.6 °F11 %30.12 in10.0 miNNW (330°)6.9 mphClear
12:55 PM75.2 °F17.6 °F11 %30.11 in10.0 miWNW (290°)4.6 mphClear
1:15 PM75.2 °F17.6 °F11 %30.10 in10.0 miWest (270°)4.6 mphClear
1:35 PM77.0 °F19.4 °F12 %30.09 in10.0 miNW (310°)8.1 mphClear
1:55 PM77.0 °F19.4 °F12 %30.09 in10.0 miNorth (350°)10.4 mph19.6 mphClear
2:15 PM75.2 °F19.4 °F12 %30.08 in10.0 miWNW (300°)9.2 mph16.1 mphClear
2:35 PM77.0 °F17.6 °F11 %30.07 in10.0 miNNW (340°)10.4 mph18.4 mphClear
2:55 PM78.8 °F17.6 °F10 %30.07 in10.0 miNW (310°)15.0 mph19.6 mphClear
3:15 PM77.0 °F17.6 °F11 %30.06 in10.0 miNW (310°)9.2 mph19.6 mphClear
3:35 PM77.0 °F14.0 °F9 %30.05 in10.0 miNorth (350°)11.5 mph23.0 mphClear
3:55 PM77.0 °F10.4 °F8 %30.05 in10.0 miNNW (340°)11.5 mph19.6 mphClear
4:15 PM77.0 °F10.4 °F8 %30.03 in10.0 miWNW (300°)10.4 mph20.7 mphClear
4:35 PM77.0 °F10.4 °F8 %30.03 in10.0 miNNW (340°)16.1 mph20.7 mphClear
4:55 PM77.0 °F10.4 °F8 %30.03 in10.0 miNNW (340°)11.5 mph18.4 mphClear
5:15 PM77.0 °F10.4 °F8 %30.03 in10.0 miNNW (340°)13.8 mph25.3 mphClear
5:35 PM77.0 °F10.4 °F8 %30.03 in10.0 miNorth (360°)16.1 mph23.0 mphClear
5:55 PM75.2 °F8.6 °F8 %30.03 in10.0 miNorth (360°)17.3 mph21.9 mphClear
6:15 PM75.2 °F6.8 °F7 %30.03 in10.0 miNorth (350°)16.1 mphClear
6:35 PM75.2 °F6.8 °F7 %30.03 in10.0 miNorth (360°)17.3 mph21.9 mphClear
6:55 PM73.4 °F6.8 °F8 %30.02 in10.0 miNorth (10°)10.4 mphClear
7:15 PM71.6 °F5.0 °F7 %30.02 in10.0 miNE (40°)10.4 mphClear
7:35 PM71.6 °F6.8 °F8 %30.02 in10.0 miNE (40°)8.1 mphClear
7:55 PM68.0 °F6.8 °F9 %30.02 in10.0 miNE (50°)6.9 mphClear
8:15 PM68.0 °F6.8 °F9 %30.02 in10.0 miNE (40°)8.1 mphClear
8:55 PM64.4 °F10.4 °F12 %30.03 in10.0 miNNE (30°)8.1 mphClear
9:15 PM66.2 °F6.8 °F10 %30.03 in10.0 miNNE (20°)9.2 mphClear
9:35 PM66.2 °F6.8 °F10 %30.03 in10.0 miNNE (20°)11.5 mphClear
9:55 PM66.2 °F5.0 °F9 %30.04 in10.0 miNorth (10°)10.4 mphClear
10:15 PM64.4 °F8.6 °F11 %30.05 in10.0 miNNW (340°)10.4 mphClear
10:35 PM59.0 °F10.4 °F15 %30.05 in10.0 miNorth (350°)10.4 mphClear
10:55 PM59.0 °F8.6 °F14 %30.05 in10.0 miNNW (340°)8.1 mphClear
11:15 PM59.0 °F8.6 °F14 %30.05 in10.0 miNorth (350°)10.4 mphClear
11:35 PM59.0 °F10.4 °F15 %30.05 in10.0 miNorth (360°)5.8 mphClear
11:55 PM57.2 °F10.4 °F16 %30.06 in10.0 miNNW (340°)8.1 mphClear
Hourly data recorded from KCXP, located miles away from Carson City, Nevada







STORIES FROM OUR PARTNERS